Temp
-5 -5 -5 -5 -5 -5 -5 -5 -5 -5 -5 -5 -5 -5 -5 -5 -5 -5 -5 -5 -5 -5 -5 -5 -5 -5 -5 -5 -5 -5 -5 -5 -6 -6 -6 -6 -6 -6 -6 -6 -6 -6
-5 -5 -5 -5 -5 -5 -5 -5 -5 -5 -5 -5 -5 -5 -5 -5 -5 -5 -5 -5 -5 -5 -5 -5 -5 -5 -5 -5 -5 -5 -5 -5 -6 -6 -6 -6 -6 -6 -6 -6 -6 -6
-5 -4 -5 -5 -5 -5 -5 -5 -5 -5 -5 -5 -5 -5 -5 -5 -5 -5 -5 -5 -5 -5 -5 -5 -5 -5 -5 -5 -5 -5 -5 -5 -5 -5 -6 -6 -6 -6 -6 -6 -6 -6
-5 -4 -4 -4 -4 -5 -5 -5 -5 -5 -5 -5 -5 -5 -5 -5 -5 -5 -5 -5 -5 -5 -5 -5 -5 -5 -5 -5 -5 -5 -5 -5 -5 -5 -5 -5 -6 -6 -6 -6 -6 -6
-5 -5 -4 -4 -4 -5 -5 -5 -5 -5 -5 -5 -5 -5 -5 -5 -5 -5 -5 -5 -5 -5 -5 -5 -5 -5 -5 -5 -5 -5 -5 -5 -5 -5 -5 -5 -5 -6 -6 -6 -6 -6
-5 -5 -5 -4 -4 -5 -5 -5 -5 -5 -5 -5 -5 -5 -5 -5 -5 -5 -5 -5 -5 -5 -5 -5 -5 -5 -5 -5 -5 -5 -5 -5 -5 -5 -5 -5 -5 -5 -5 -5 -6 -6
-5 -5 -5 -5 -5 -5 -5 -5 -5 -5 -5 -5 -5 -5 -5 -5 -5 -5 -5 -5 -5 -5 -5 -5 -5 -5 -5 -5 -5 -5 -5 -5 -5 -5 -5 -5 -5 -5 -5 -5 -5 -5
-5 -5 -5 -5 -5 -5 -5 -5 -5 -5 -5 -5 -5 -5 -5 -5 -5 -5 -5 -5 -5 -5 -5 -5 -5 -5 -5 -5 -5 -5 -5 -5 -5 -5 -4 -4 -5 -5 -5 -5 -5 -5
-5 -5 -5 -5 -5 -5 -5 -5 -5 -5 -5 -5 -5 -5 -5 -5 -5 -5 -5 -5 -5 -5 -5 -5 -5 -5 -5 -5 -5 -5 -5 -5 -5 -4 -4 -4 -4 -4 -4 -4 -5 -5
-5 -5 -5 -5 -5 -5 -5 -5 -5 -5 -5 -5 -5 -5 -5 -5 -5 -5 -5 -5 -5 -5 -4 -4 -5 -5 -5 -5 -5 -5 -5 -5 -5 -4 -4 -4 -4 -4 -4 -4 -4 -5
-5 -5 -5 -5 -5 -5 -5 -5 -5 -5 -5 -5 -5 -5 -5 -5 -5 -5 -5 -5 -5 -4 -4 -5 -5 -5 -5 -5 -5 -5 -5 -5 -5 -4 -4 -4 -4 -4 -4 -4 -4 -4
-5 -5 -5 -5 -6 -6 -6 -5 -5 -5 -5 -5 -6 -5 -5 -5 -5 -5 -5 -5 -4 -4 -4 -4 -5 -5 -5 -5 -5 -5 -5 -5 -5 -4 -4 -4 -4 -4 -4 -4 -4 -4
-6 -6 -6 -6 -6 -6 -6 -6 -5 -5 -5 -5 -5 -5 -5 -5 -5 -5 -5 -5 -4 -4 -4 -4 -5 -5 -5 -5 -5 -5 -4 -4 -4 -4 -4 -4 -4 -4 -4 -4 -4 -4
-6 -6 -6 -6 -6 -6 -6 -5 -5 -5 -5 -5 -5 -5 -5 -5 -5 -5 -5 -5 -5 -4 -4 -4 -5 -5 -5 -5 -5 -5 -4 -4 -4 -4 -4 -4 -4 -4 -4 -4 -4 -4
-6 -6 -6 -6 -6 -6 -6 -6 -5 -5 -5 -5 -5 -5 -5 -5 -5 -5 -5 -5 -5 -5 -5 -5 -5 -5 -5 -5 -5 -5 -5 -5 -4 -4 -4 -5 -5 -4 -4 -4 -4 -4
-6 -6 -6 -6 -6 -6 -6 -6 -6 -5 -5 -5 -5 -5 -5 -5 -5 -5 -5 -5 -5 -5 -5 -5 -5 -5 -5 -5 -5 -5 -5 -5 -5 -5 -5 -5 -5 -5 -5 -4 -4 -4
-7 -6 -6 -6 -6 -6 -6 -6 -6 -6 -6 -6 -5 -5 -6 -5 -5 -5 -6 -6 -6 -6 -5 -5 -5 -6 -5 -5 -5 -5 -5 -5 -5 -5 -5 -5 -5 -5 -5 -5 -5 -5
-7 -7 -7 -6 -6 -6 -6 -6 -6 -6 -6 -6 -6 -6 -6 -6 -6 -5 -5 -6 -6 -6 -6 -6 -6 -6 -6 -6 -5 -5 -5 -5 -5 -5 -5 -5 -5 -5 -5 -5 -5 -5
-7 -7 -7 -7 -7 -6 -6 -6 -6 -6 -6 -7 -6 -6 -6 -6 -6 -6 -5 -5 -5 -6 -6 -6 -6 -6 -6 -6 -6 -5 -5 -5 -5 -5 -6 -5 -5 -5 -5 -5 -5 -5
-7 -7 -6 -6 -7 -7 -6 -6 -6 -6 -6 -6 -6 -6 -6 -6 -6 -5 -5 -5 -5 -5 -6 -6 -6 -6 -6 -6 -6 -5 -5 -5 -5 -5 -5 -5 -5 -5 -6 -6 -6 -5
-7 -7 -7 -7 -6 -6 -6 -6 -6 -6 -6 -6 -6 -6 -6 -6 -6 -5 -5 -5 -5 -5 -5 -6 -6 -6 -6 -6 -6 -6 -5 -5 -5 -5 -5 -5 -5 -5 -5 -6 -6 -6
-7 -7 -7 -7 -7 -6 -6 -6 -6 -6 -7 -7 -6 -6 -6 -6 -6 -6 -5 -5 -5 -5 -5 -5 -6 -6 -6 -6 -6 -6 -6 -5 -5 -5 -5 -5 -5 -6 -5 -5 -5 -5
-7 -7 -7 -7 -7 -7 -7 -7 -7 -7 -7 -7 -6 -6 -6 -6 -6 -6 -5 -5 -5 -5 -6 -6 -6 -6 -6 -6 -6 -6 -5 -5 -5 -5 -5 -5 -5 -6 -6 -6 -5 -5
-7 -7 -7 -7 -7 -7 -7 -7 -7 -7 -7 -7 -6 -6 -6 -6 -7 -6 -6 -5 -5 -6 -6 -6 -6 -5 -5 -5 -6 -6 -6 -6 -5 -5 -5 -5 -5 -5 -6 -6 -6 -5
-7 -7 -7 -8 -8 -7 -7 -7 -7 -7 -7 -7 -6 -6 -6 -6 -6 -6 -6 -5 -5 -6 -6 -6 -6 -6 -6 -6 -6 -6 -6 -6 -6 -6 -5 -5 -5 -5 -5 -6 -6 -6
-7 -7 -7 -8 -8 -8 -7 -7 -7 -7 -6 -6 -6 -6 -6 -6 -6 -6 -6 -6 -6 -6 -6 -6 -6 -6 -6 -6 -6 -6 -6 -6 -6 -6 -6 -6 -5 -5 -5 -5 -5 -6
Height
5958 5960 5961 5962 5964 5965 5967 5968 5969 5969 5970 5971 5971 5972 5973 5974 5974 5975 5976 5977 5977 5978 5978 5979 5979 5980 5980 5980 5980 5981 5982 5982 5982 5983 5983 5983 5984 5984 5985 5985 5985 5985
5957 5959 5960 5962 5963 5964 5966 5967 5968 5969 5970 5970 5971 5971 5972 5973 5974 5974 5975 5976 5977 5978 5978 5979 5979 5979 5980 5980 5980 5981 5981 5982 5982 5982 5983 5983 5983 5984 5984 5985 5985 5985
5956 5958 5959 5961 5962 5963 5965 5966 5967 5968 5969 5970 5970 5971 5971 5972 5973 5974 5974 5975 5976 5977 5978 5979 5979 5979 5980 5980 5980 5980 5981 5981 5982 5982 5982 5983 5983 5983 5984 5984 5984 5984
5955 5956 5958 5959 5961 5963 5964 5965 5966 5967 5968 5969 5970 5970 5971 5972 5972 5973 5974 5975 5976 5977 5977 5978 5979 5979 5980 5980 5980 5980 5981 5981 5981 5982 5982 5982 5983 5983 5984 5984 5984 5984
5953 5955 5956 5958 5960 5961 5963 5964 5965 5966 5967 5968 5969 5970 5970 5971 5972 5973 5973 5974 5975 5976 5977 5977 5978 5979 5979 5980 5980 5980 5981 5981 5981 5981 5982 5982 5982 5983 5983 5983 5984 5984
5952 5953 5955 5956 5958 5960 5961 5963 5964 5965 5966 5967 5968 5969 5970 5970 5971 5972 5973 5973 5974 5975 5976 5976 5977 5978 5978 5979 5980 5980 5980 5981 5981 5981 5981 5982 5982 5982 5983 5983 5983 5984
5952 5953 5954 5955 5957 5959 5960 5961 5963 5964 5965 5966 5967 5968 5968 5969 5970 5971 5972 5973 5973 5974 5975 5975 5976 5977 5977 5978 5978 5979 5980 5980 5980 5981 5981 5981 5982 5982 5982 5982 5983 5983
5951 5952 5954 5954 5956 5957 5959 5960 5962 5963 5964 5965 5966 5966 5967 5968 5969 5970 5971 5972 5973 5973 5974 5974 5975 5975 5976 5977 5977 5978 5978 5979 5979 5980 5980 5981 5981 5981 5981 5982 5982 5982
5949 5951 5953 5954 5955 5956 5957 5959 5960 5961 5962 5963 5964 5965 5966 5967 5968 5969 5970 5971 5972 5972 5973 5973 5974 5974 5975 5976 5976 5976 5977 5978 5978 5979 5979 5980 5980 5981 5981 5981 5981 5982
5947 5949 5951 5953 5954 5955 5955 5956 5958 5959 5961 5962 5963 5964 5965 5966 5966 5967 5968 5969 5970 5971 5972 5972 5973 5973 5974 5974 5975 5975 5976 5976 5977 5977 5978 5979 5979 5980 5980 5981 5981 5981
5946 5948 5949 5950 5952 5953 5953 5954 5955 5957 5958 5959 5960 5962 5963 5964 5965 5966 5967 5967 5968 5969 5970 5971 5971 5972 5973 5973 5974 5974 5974 5975 5975 5976 5976 5977 5978 5979 5980 5980 5980 5980
5944 5946 5946 5946 5948 5949 5950 5951 5953 5954 5955 5956 5958 5959 5960 5962 5963 5964 5965 5966 5966 5967 5968 5969 5970 5970 5971 5972 5972 5972 5973 5973 5974 5974 5975 5976 5977 5977 5978 5979 5979 5980
5940 5941 5941 5942 5944 5946 5947 5948 5949 5951 5952 5954 5955 5957 5958 5960 5961 5962 5963 5964 5965 5966 5967 5968 5968 5969 5970 5970 5970 5971 5971 5972 5972 5973 5974 5974 5975 5976 5977 5977 5978 5979
5935 5937 5938 5939 5941 5943 5945 5946 5947 5948 5950 5952 5953 5955 5957 5958 5959 5961 5962 5963 5963 5964 5965 5966 5967 5968 5968 5968 5969 5969 5969 5970 5971 5971 5972 5973 5974 5974 5975 5976 5976 5977
5932 5933 5935 5937 5939 5941 5943 5945 5946 5947 5949 5952 5953 5954 5956 5957 5959 5960 5961 5961 5962 5963 5964 5965 5965 5966 5966 5967 5967 5968 5968 5968 5969 5969 5970 5971 5972 5973 5973 5974 5974 5975
5930 5931 5932 5934 5936 5938 5940 5944 5946 5947 5948 5950 5952 5954 5956 5957 5959 5960 5960 5961 5961 5961 5962 5963 5963 5964 5964 5964 5965 5965 5966 5966 5967 5967 5968 5969 5970 5970 5971 5972 5972 5973
5927 5928 5930 5931 5934 5936 5939 5943 5944 5945 5946 5947 5949 5951 5953 5954 5956 5957 5958 5959 5960 5960 5960 5961 5961 5961 5961 5961 5962 5963 5963 5964 5965 5965 5966 5967 5968 5968 5969 5970 5970 5971
5925 5926 5927 5929 5931 5934 5937 5940 5941 5942 5943 5944 5945 5947 5949 5950 5951 5952 5953 5955 5956 5957 5957 5958 5958 5958 5959 5959 5959 5959 5960 5961 5962 5963 5964 5965 5966 5966 5967 5967 5968 5969
5923 5924 5926 5927 5928 5930 5933 5936 5938 5939 5940 5941 5942 5944 5945 5946 5947 5948 5950 5951 5953 5954 5955 5955 5956 5956 5957 5957 5957 5957 5957 5958 5959 5960 5961 5963 5963 5964 5965 5965 5966 5967
5920 5922 5924 5925 5926 5927 5930 5932 5934 5935 5936 5937 5939 5940 5941 5942 5943 5945 5947 5949 5951 5952 5953 5954 5954 5954 5955 5956 5956 5955 5955 5956 5957 5958 5959 5960 5961 5961 5962 5963 5964 5964
5917 5919 5920 5922 5923 5925 5927 5928 5929 5930 5931 5932 5934 5935 5937 5938 5939 5940 5943 5946 5948 5949 5950 5951 5952 5952 5952 5953 5954 5954 5954 5955 5956 5957 5957 5957 5958 5958 5959 5960 5961 5962
5914 5915 5917 5918 5920 5921 5923 5924 5925 5926 5927 5928 5929 5931 5932 5934 5935 5936 5938 5941 5943 5944 5945 5946 5947 5948 5948 5949 5950 5950 5951 5952 5953 5954 5955 5956 5956 5956 5956 5957 5958 5959
5912 5912 5913 5914 5916 5917 5918 5919 5921 5923 5924 5926 5927 5927 5928 5930 5931 5932 5934 5937 5938 5940 5941 5941 5941 5942 5943 5946 5947 5948 5949 5950 5951 5951 5952 5954 5954 5955 5955 5955 5955 5956
5909 5910 5910 5911 5912 5913 5914 5915 5917 5918 5920 5922 5924 5925 5925 5926 5927 5928 5930 5932 5934 5935 5935 5936 5936 5937 5941 5945 5948 5948 5949 5949 5949 5949 5950 5951 5952 5953 5953 5953 5953 5953
5905 5906 5907 5908 5909 5910 5911 5912 5913 5915 5916 5918 5920 5921 5922 5922 5923 5924 5926 5927 5929 5929 5930 5931 5933 5936 5939 5942 5943 5944 5945 5945 5945 5946 5948 5949 5949 5950 5950 5951 5951 5951
5900 5902 5903 5904 5905 5907 5908 5908 5909 5911 5912 5913 5915 5917 5917 5918 5919 5921 5922 5923 5924 5924 5925 5927 5931 5935 5935 5934 5934 5934 5936 5937 5939 5941 5942 5943 5945 5946 5947 5948 5949 5949
Wind_Speed
12 12 12 12 11 11 10 9 9 8 8 8 7 7 6 6 5 4 4 4 3 3 4 5 5 5 4 4 3 3 2 2 2 2 2 2 3 2 2 1 1 0
13 12 12 12 12 12 11 10 10 9 8 8 7 7 6 6 6 5 4 4 3 3 3 3 4 4 4 4 3 3 3 2 2 3 3 3 3 3 4 3 3 2
14 13 13 13 13 12 12 11 11 10 9 8 7 7 6 6 6 6 5 4 3 3 3 2 2 3 4 4 4 3 3 3 3 3 3 3 4 4 4 5 5 4
15 15 14 14 13 12 12 12 12 11 10 9 8 8 7 6 6 6 6 5 4 4 3 3 2 3 3 3 4 4 3 3 3 3 3 3 3 4 4 5 6 5
16 16 15 15 14 14 14 13 13 13 12 11 10 9 8 7 7 7 7 6 5 5 4 4 4 4 4 4 5 5 4 4 4 4 4 4 3 4 4 5 5 5
16 16 16 16 15 15 15 15 15 14 13 12 11 10 9 9 8 7 7 6 6 5 5 5 6 6 6 6 6 6 5 5 5 5 4 4 4 4 4 4 5 5
16 17 17 16 16 16 16 16 15 15 14 13 13 12 11 10 9 7 7 6 6 6 6 6 7 7 7 7 7 7 7 7 7 6 5 4 4 4 4 4 4 4
17 17 17 16 16 16 17 17 17 16 15 15 14 13 13 12 10 9 7 7 6 6 6 7 7 7 7 8 8 8 8 8 8 7 6 5 4 4 3 3 3 4
17 17 17 17 16 16 17 17 18 17 16 16 16 15 14 13 12 10 9 8 7 6 6 6 6 7 7 8 8 9 9 9 9 9 8 7 5 4 3 3 2 3
19 18 18 18 18 18 18 18 19 18 18 17 17 16 16 14 13 12 10 9 8 7 6 5 5 5 6 7 8 9 10 10 10 10 10 9 8 6 5 4 4 3
21 19 18 18 19 19 19 19 19 19 19 19 19 18 17 16 15 13 12 11 10 9 7 5 5 4 5 5 7 9 10 10 11 11 11 11 10 9 7 6 5 5
22 20 19 19 20 21 21 20 20 19 20 20 20 20 19 18 17 15 14 13 12 10 8 7 5 4 4 4 6 8 9 10 11 12 12 12 12 12 10 9 8 7
24 23 22 21 22 24 24 23 22 21 21 21 21 21 20 19 19 17 16 15 14 12 10 9 7 6 5 5 5 7 8 9 11 12 12 12 12 13 13 12 10 10
28 27 24 22 22 24 25 25 24 23 22 22 22 22 21 20 20 19 17 16 15 14 12 10 9 8 7 7 7 7 8 9 10 11 13 12 12 13 14 14 14 13
31 29 26 24 24 25 26 25 24 23 23 22 22 22 22 21 20 20 19 17 16 15 14 12 11 10 10 9 9 8 8 9 9 10 12 13 13 13 13 14 15 15
30 30 29 27 26 27 26 25 24 22 21 21 22 21 21 21 20 19 19 18 17 17 16 14 13 13 13 12 11 11 10 10 10 11 12 13 13 13 14 14 14 15
29 29 29 29 29 28 27 25 24 22 21 21 22 21 21 21 21 20 20 19 19 18 17 16 15 15 15 15 14 13 12 12 12 12 13 13 14 14 14 15 15 15
29 29 28 29 29 29 28 27 27 26 24 23 22 22 21 21 22 23 23 22 20 19 18 18 18 17 17 17 17 17 15 14 13 13 14 14 15 16 16 15 15 15
28 28 28 28 28 28 28 29 29 29 27 24 23 23 23 22 24 25 25 24 23 21 19 19 20 20 20 20 20 20 19 18 16 15 15 16 16 17 17 17 17 17
29 29 28 28 28 28 29 31 31 31 30 28 25 25 26 25 25 26 26 26 25 23 21 19 20 21 22 21 22 22 22 20 19 18 17 17 18 18 19 19 19 19
28 30 30 29 29 30 31 34 34 32 32 32 30 28 29 28 27 27 28 27 27 25 23 21 20 21 23 23 23 24 24 23 21 19 18 18 19 19 20 21 21 21
27 29 30 31 31 30 30 32 33 31 31 32 32 31 31 30 30 29 30 29 29 27 25 24 23 23 24 25 25 25 25 24 23 21 20 19 19 20 21 22 22 22
28 28 29 30 31 29 28 29 30 29 31 33 33 33 32 31 31 32 32 31 31 29 27 25 26 27 28 27 28 28 27 26 25 24 22 20 20 20 21 22 23 23
30 30 30 30 30 29 28 29 29 29 31 34 34 33 33 32 34 36 36 34 32 31 30 29 29 30 28 26 26 27 27 27 27 27 25 23 21 21 22 22 23 24
32 31 31 31 31 29 29 30 30 29 31 33 34 33 33 34 35 37 38 36 35 34 34 33 31 28 26 25 26 28 29 29 30 30 28 26 25 24 24 24 24 24
36 34 33 33 32 31 30 30 30 30 31 33 33 32 32 34 35 36 36 37 37 36 36 35 31 27 25 26 28 30 30 31 31 30 29 28 29 28 27 26 25 25
Wind_Direction
189 183 179 177 175 175 176 179 180 178 177 176 175 174 170 165 164 164 162 163 166 161 157 155 156 160 160 153 146 153 162 161 170 185 191 203 205 202 204 189 179 211
197 193 190 186 183 180 178 181 184 185 187 186 181 180 179 172 166 165 167 165 162 163 163 166 169 165 160 158 164 173 175 171 184 197 203 210 210 206 208 205 206 217
202 201 200 198 194 188 183 183 187 189 192 194 194 193 192 184 171 166 167 166 164 166 167 177 186 176 170 172 178 183 187 189 195 207 219 225 221 214 213 211 210 213
207 207 206 205 202 198 194 191 191 194 196 197 201 203 203 197 184 174 170 171 177 183 183 194 210 212 200 196 199 200 203 212 222 235 243 243 237 230 224 217 215 216
212 212 210 208 205 202 202 200 198 198 199 200 203 207 208 205 196 185 180 181 188 198 206 211 218 223 223 220 221 217 215 223 233 243 255 261 258 248 239 229 222 222
218 217 213 211 208 205 206 206 205 204 204 205 206 208 209 209 206 198 193 194 199 208 217 222 223 223 224 226 228 226 223 226 231 236 244 255 264 265 258 247 236 230
226 224 220 214 209 208 208 209 210 210 210 211 210 210 209 211 212 209 208 208 209 214 221 226 228 226 224 224 226 227 225 225 227 231 234 242 256 267 269 258 246 239
230 231 229 224 216 212 211 211 212 214 215 216 216 215 212 212 214 215 218 221 221 221 224 227 230 228 224 224 224 224 223 223 224 224 225 227 234 248 258 255 243 238
227 231 233 233 226 219 215 213 214 215 217 219 221 221 218 215 216 217 219 224 230 233 232 229 228 227 225 223 224 223 220 220 222 222 220 217 216 218 225 227 222 222
227 228 231 235 234 228 222 217 216 216 217 220 223 225 224 221 220 219 219 221 227 233 235 234 231 226 224 223 224 225 222 220 221 222 219 215 212 209 205 205 205 204
231 228 228 233 236 235 230 224 221 218 218 219 222 226 227 226 225 223 221 220 222 227 231 233 233 229 224 223 226 228 227 224 223 224 222 217 215 212 205 202 202 202
231 226 225 229 234 235 233 230 226 223 221 221 222 225 227 228 228 226 223 221 220 222 225 225 228 231 228 225 228 230 230 229 227 226 226 222 220 218 213 208 206 205
227 225 224 226 231 235 234 230 226 224 225 224 223 224 226 229 231 229 227 224 221 220 223 223 223 227 231 230 230 233 234 233 232 230 229 227 226 225 222 218 216 213
227 230 231 231 232 236 237 235 230 224 223 225 226 225 225 228 231 232 231 229 226 224 223 225 227 229 234 234 233 236 239 238 236 234 232 230 229 230 228 226 225 223
226 231 233 233 233 235 237 238 236 230 226 227 230 231 230 229 231 234 234 232 232 230 226 226 229 233 238 240 238 237 241 244 242 237 235 234 232 232 232 231 231 231
226 230 231 231 231 234 237 237 238 238 237 235 235 238 240 238 236 237 239 239 238 236 232 230 232 235 237 239 241 239 239 242 245 242 238 236 235 234 234 233 234 234
228 232 234 234 233 236 239 239 241 242 242 243 240 239 242 245 243 240 238 238 240 241 241 238 238 241 241 240 241 241 239 238 242 244 242 240 238 237 236 236 235 236
230 234 238 240 240 240 240 240 241 240 238 241 242 241 241 245 247 244 238 232 231 236 242 243 240 240 243 244 243 240 239 236 236 239 240 240 240 240 240 239 239 239
232 233 234 236 238 242 242 240 239 239 238 238 240 241 241 242 245 246 243 237 230 227 233 243 246 242 240 242 244 242 239 235 234 234 235 237 237 238 240 241 241 241
237 236 234 233 232 236 239 239 237 235 234 234 236 238 238 239 242 244 245 244 239 232 229 235 247 251 249 247 247 247 244 239 235 233 233 235 236 236 237 239 241 242
239 239 239 238 237 237 238 239 237 233 229 230 235 237 237 240 243 244 244 244 243 240 235 232 237 248 255 256 255 255 253 250 246 240 236 235 236 236 236 236 238 240
243 241 240 239 239 240 240 240 238 234 232 234 238 240 241 242 244 243 243 242 241 240 239 236 235 238 245 251 254 256 256 255 255 252 247 243 241 240 239 238 238 239
251 249 247 243 241 241 241 240 238 237 239 241 242 242 242 243 245 245 242 241 240 239 239 239 239 238 240 243 249 254 257 257 258 256 254 251 249 247 246 245 243 242
255 255 254 253 250 246 244 241 237 237 239 240 240 242 241 241 243 244 243 241 240 239 240 241 239 240 243 247 251 257 260 260 261 260 258 257 255 253 252 250 249 247
255 255 255 255 254 251 250 248 243 240 239 237 237 239 240 241 242 243 244 244 241 239 240 242 242 242 245 248 250 253 255 256 258 259 261 262 260 257 254 252 252 252
257 256 255 256 255 253 252 253 252 250 247 243 240 239 239 241 243 243 243 243 242 240 240 242 243 243 244 245 245 247 248 249 250 251 253 257 259 259 257 256 254 253